User: anonymous   Login
Location: Ariel
(45.9570°N, 122.5700°W)
Time: 15:12:47
(UTC-07:00)
Language:

NOAA 15 - Orbit

View from above orbital plane
View from above orbital plane
View from above satellite
View from above satellite

Ground track
Ground track

The orbit data is extracted from the following two-line orbital elements,

1 25338U 98030A   19113.56075307  .00000007  00000-0  21457-4 0  9999
2 25338  98.7516 134.9150 0011274  50.8805 309.3375 14.25903292 89254
Epoch (UTC): 23 April 2019 13:27:29
Eccentricity: 0.0011274
inclination: 98.7516°
perigee height: 797 km
apogee height: 813 km
right ascension of ascending node: 134.9150°
argument of perigee: 50.8805°
revolutions per day: 14.25903292
mean anomaly at epoch: 309.3375°
orbit number at epoch: 8925

The dashed part of the orbit path shows where the satellite is in the earth's shadow,  

DLR